Time,TemperatureF,DewpointF,PressureIn,WindDirection,WindDirectionDegrees,WindSpeedMPH,WindSpeedGustMPH,Humidity,HourlyPrecipIn,Conditions,Clouds,dailyrainin,SoftwareType,DateUTC
2013-09-17 00:03:00,47.6,40.0,30.23,SSW,194,0.0,3.0,75,0.00,,,0.05,weatherlink.com 1.10,2013-09-17 04:03:00,
2013-09-17 00:18:00,47.0,40.0,30.23,ESE,122,0.0,5.0,76,0.00,,,0.00,weatherlink.com 1.10,2013-09-17 04:18:00,
2013-09-17 00:33:00,46.4,40.0,30.24,WSW,250,0.0,3.0,77,0.00,,,0.00,weatherlink.com 1.10,2013-09-17 04:33:00,
2013-09-17 00:48:00,45.8,39.0,30.25,SSE,150,0.0,4.0,77,0.00,,,0.00,weatherlink.com 1.10,2013-09-17 04:48:00,
2013-09-17 01:03:00,45.2,39.0,30.24,ENE,72,0.0,3.0,78,0.00,,,0.00,weatherlink.com 1.10,2013-09-17 05:03:00,
2013-09-17 01:19:00,44.8,39.0,30.24,SSE,165,1.0,5.0,79,0.00,,,0.00,weatherlink.com 1.10,2013-09-17 05:19:00,
2013-09-17 01:34:00,44.7,39.0,30.25,SE,141,0.0,6.0,79,0.00,,,0.00,weatherlink.com 1.10,2013-09-17 05:34:00,
2013-09-17 01:49:00,44.1,38.0,30.25,SSE,155,0.0,3.0,80,0.00,,,0.00,weatherlink.com 1.10,2013-09-17 05:49:00,
2013-09-17 02:04:00,43.7,38.0,30.25,SSE,153,0.0,1.0,81,0.00,,,0.00,weatherlink.com 1.10,2013-09-17 06:04:00,
2013-09-17 02:19:00,43.1,38.0,30.25,South,170,0.0,3.0,82,0.00,,,0.00,weatherlink.com 1.10,2013-09-17 06:19:00,
2013-09-17 02:34:00,42.9,38.0,30.26,SE,135,0.0,4.0,83,0.00,,,0.00,weatherlink.com 1.10,2013-09-17 06:34:00,
2013-09-17 02:49:00,42.5,38.0,30.26,West,280,0.0,2.0,83,0.00,,,0.00,weatherlink.com 1.10,2013-09-17 06:49:00,
2013-09-17 03:04:00,42.4,38.0,30.27,South,183,0.0,2.0,83,0.00,,,0.00,weatherlink.com 1.10,2013-09-17 07:04:00,
2013-09-17 03:19:00,42.2,38.0,30.27,NE,56,0.0,3.0,84,0.00,,,0.00,weatherlink.com 1.10,2013-09-17 07:19:00,
2013-09-17 03:34:00,41.9,37.0,30.27,ESE,107,0.0,1.0,84,0.00,,,0.00,weatherlink.com 1.10,2013-09-17 07:34:00,
2013-09-17 03:49:00,41.7,37.0,30.28,SSE,155,0.0,3.0,84,0.00,,,0.00,weatherlink.com 1.10,2013-09-17 07:49:00,
2013-09-17 04:04:00,41.5,37.0,30.28,SE,134,0.0,2.0,84,0.00,,,0.00,weatherlink.com 1.10,2013-09-17 08:04:00,
2013-09-17 04:19:00,41.2,37.0,30.28,SW,218,0.0,1.0,85,0.00,,,0.00,weatherlink.com 1.10,2013-09-17 08:19:00,
2013-09-17 04:34:00,41.1,37.0,30.29,South,177,0.0,1.0,85,0.00,,,0.00,weatherlink.com 1.10,2013-09-17 08:34:00,
2013-09-17 04:49:00,41.0,37.0,30.29,SW,224,0.0,2.0,85,0.00,,,0.00,weatherlink.com 1.10,2013-09-17 08:49:00,
2013-09-17 05:04:00,40.8,37.0,30.29,SW,219,0.0,2.0,85,0.00,,,0.00,weatherlink.com 1.10,2013-09-17 09:04:00,
2013-09-17 05:19:00,40.6,37.0,30.29,South,191,0.0,2.0,85,0.00,,,0.00,weatherlink.com 1.10,2013-09-17 09:19:00,
2013-09-17 05:34:00,40.2,36.0,30.30,South,190,0.0,2.0,86,0.00,,,0.00,weatherlink.com 1.10,2013-09-17 09:34:00,
2013-09-17 05:49:00,39.7,37.0,30.30,SSE,149,0.0,1.0,88,0.00,,,0.00,weatherlink.com 1.10,2013-09-17 09:49:00,
2013-09-17 06:04:00,39.7,37.0,30.31,SW,232,1.0,3.0,88,0.00,,,0.00,weatherlink.com 1.10,2013-09-17 10:04:00,
2013-09-17 06:19:00,39.9,37.0,30.32,SSE,153,0.0,4.0,88,0.00,,,0.00,weatherlink.com 1.10,2013-09-17 10:19:00,
2013-09-17 06:34:00,39.7,37.0,30.33,SSE,148,0.0,1.0,88,0.00,,,0.00,weatherlink.com 1.10,2013-09-17 10:34:00,
2013-09-17 06:50:00,39.7,37.0,30.34,SSW,210,2.0,2.0,88,0.00,,,0.00,weatherlink.com 1.10,2013-09-17 10:50:00,
2013-09-17 07:05:00,40.0,37.0,30.34,SW,222,0.0,2.0,87,0.00,,,0.00,weatherlink.com 1.10,2013-09-17 11:05:00,
2013-09-17 07:20:00,40.0,37.0,30.35,SSE,165,0.0,2.0,88,0.00,,,0.00,weatherlink.com 1.10,2013-09-17 11:20:00,
2013-09-17 07:35:00,40.6,37.0,30.35,SE,136,0.0,3.0,87,0.00,,,0.00,weatherlink.com 1.10,2013-09-17 11:35:00,
2013-09-17 07:50:00,41.3,37.0,30.35,SSE,148,1.0,3.0,86,0.00,,,0.00,weatherlink.com 1.10,2013-09-17 11:50:00,
2013-09-17 08:05:00,41.8,38.0,30.36,East,99,0.0,1.0,85,0.00,,,0.00,weatherlink.com 1.10,2013-09-17 12:05:00,
2013-09-17 08:20:00,42.7,38.0,30.36,SSE,156,0.0,4.0,84,0.00,,,0.00,weatherlink.com 1.10,2013-09-17 12:20:00,
2013-09-17 08:35:00,43.9,38.0,30.37,NE,38,0.0,5.0,81,0.00,,,0.00,weatherlink.com 1.10,2013-09-17 12:35:00,
2013-09-17 08:50:00,45.0,39.0,30.38,North,354,0.0,4.0,79,0.00,,,0.00,weatherlink.com 1.10,2013-09-17 12:50:00,
2013-09-17 09:05:00,46.6,39.0,30.39,SSW,205,6.0,6.0,76,0.00,,,0.00,weatherlink.com 1.10,2013-09-17 13:05:00,
2013-09-17 09:22:00,48.1,39.0,30.39,SSE,168,0.0,8.0,71,0.00,,,0.00,weatherlink.com 1.10,2013-09-17 13:22:00,
2013-09-17 09:39:00,49.2,39.0,30.39,SE,135,0.0,6.0,68,0.00,,,0.00,weatherlink.com 1.10,2013-09-17 13:39:00,
2013-09-17 09:56:00,50.0,38.0,30.40,WNW,299,0.0,9.0,64,0.00,,,0.00,weatherlink.com 1.10,2013-09-17 13:56:00,
2013-09-17 10:31:00,51.4,38.0,30.39,SSW,205,2.0,5.0,61,0.00,,,0.00,weatherlink.com 1.10,2013-09-17 14:31:00,
2013-09-17 10:48:00,51.9,38.0,30.39,SW,232,3.0,6.0,59,0.00,,,0.00,weatherlink.com 1.10,2013-09-17 14:48:00,
2013-09-17 11:05:00,52.5,38.0,30.40,SW,227,3.0,8.0,58,0.00,,,0.00,weatherlink.com 1.10,2013-09-17 15:05:00,
2013-09-17 11:23:00,53.1,39.0,30.39,SSW,205,2.0,7.0,59,0.00,,,0.00,weatherlink.com 1.10,2013-09-17 15:23:00,
2013-09-17 11:40:00,54.0,39.0,30.39,NE,51,0.0,5.0,58,0.00,,,0.00,weatherlink.com 1.10,2013-09-17 15:40:00,
2013-09-17 11:57:00,54.3,39.0,30.39,South,188,1.0,7.0,56,0.00,,,0.00,weatherlink.com 1.10,2013-09-17 15:57:00,
2013-09-17 12:15:00,54.8,38.0,30.39,SW,217,1.0,6.0,54,0.00,,,0.00,weatherlink.com 1.10,2013-09-17 16:15:00,
2013-09-17 12:32:00,55.0,40.0,30.38,ENE,78,0.0,5.0,58,0.00,,,0.00,weatherlink.com 1.10,2013-09-17 16:32:00,
2013-09-17 12:50:00,55.8,40.0,30.37,SSE,153,0.0,5.0,56,0.00,,,0.00,weatherlink.com 1.10,2013-09-17 16:50:00,
2013-09-17 13:06:00,56.4,41.0,30.37,SE,132,0.0,6.0,56,0.00,,,0.00,weatherlink.com 1.10,2013-09-17 17:06:00,
2013-09-17 13:24:00,56.7,41.0,30.36,WSW,245,0.0,4.0,56,0.00,,,0.00,weatherlink.com 1.10,2013-09-17 17:24:00,
2013-09-17 13:41:00,57.0,41.0,30.36,SE,142,1.0,5.0,56,0.00,,,0.00,weatherlink.com 1.10,2013-09-17 17:41:00,
2013-09-17 13:59:00,57.4,41.0,30.35,SE,127,0.0,6.0,55,0.00,,,0.00,weatherlink.com 1.10,2013-09-17 17:59:00,
2013-09-17 14:16:00,57.8,42.0,30.35,SW,215,5.0,5.0,56,0.00,,,0.00,weatherlink.com 1.10,2013-09-17 18:16:00,
2013-09-17 14:34:00,58.3,41.0,30.34,West,269,3.0,7.0,54,0.00,,,0.00,weatherlink.com 1.10,2013-09-17 18:34:00,
2013-09-17 14:50:00,58.1,41.0,30.34,SE,139,2.0,3.0,53,0.00,,,0.00,weatherlink.com 1.10,2013-09-17 18:50:00,
2013-09-17 15:08:00,58.5,40.0,30.34,SE,127,0.0,4.0,51,0.00,,,0.00,weatherlink.com 1.10,2013-09-17 19:08:00,
2013-09-17 15:25:00,58.8,42.0,30.33,SSE,153,0.0,3.0,55,0.00,,,0.00,weatherlink.com 1.10,2013-09-17 19:25:00,
2013-09-17 15:42:00,59.3,41.0,30.33,ESE,115,0.0,5.0,51,0.00,,,0.00,weatherlink.com 1.10,2013-09-17 19:42:00,
2013-09-17 15:59:00,59.3,42.0,30.33,West,263,3.0,4.0,54,0.00,,,0.00,weatherlink.com 1.10,2013-09-17 19:59:00,
2013-09-17 16:17:00,59.3,41.0,30.33,SE,144,1.0,6.0,51,0.00,,,0.00,weatherlink.com 1.10,2013-09-17 20:17:00,
2013-09-17 16:34:00,59.3,41.0,30.32,SSE,152,0.0,2.0,51,0.00,,,0.00,weatherlink.com 1.10,2013-09-17 20:34:00,
2013-09-17 16:51:00,59.2,42.0,30.32,South,169,0.0,4.0,53,0.00,,,0.00,weatherlink.com 1.10,2013-09-17 20:51:00,
2013-09-17 17:08:00,58.6,41.0,30.32,SSE,155,0.0,2.0,53,0.00,,,0.00,weatherlink.com 1.10,2013-09-17 21:08:00,
2013-09-17 17:25:00,58.0,43.0,30.32,SSE,148,0.0,1.0,58,0.00,,,0.00,weatherlink.com 1.10,2013-09-17 21:25:00,
2013-09-17 17:43:00,57.2,43.0,30.32,SE,132,0.0,0.0,59,0.00,,,0.00,weatherlink.com 1.10,2013-09-17 21:43:00,
2013-09-17 18:00:00,56.3,43.0,30.32,SE,133,0.0,0.0,62,0.00,,,0.00,weatherlink.com 1.10,2013-09-17 22:00:00,
2013-09-17 18:18:00,55.1,45.0,30.32,SE,133,0.0,0.0,69,0.00,,,0.00,weatherlink.com 1.10,2013-09-17 22:18:00,
2013-09-17 18:34:00,53.7,47.0,30.32,SE,132,0.0,0.0,77,0.00,,,0.00,weatherlink.com 1.10,2013-09-17 22:34:00,
2013-09-17 18:52:00,52.2,47.0,30.32,SE,133,0.0,0.0,83,0.00,,,0.00,weatherlink.com 1.10,2013-09-17 22:52:00,
2013-09-17 19:09:00,51.1,47.0,30.32,SE,133,0.0,0.0,86,0.00,,,0.00,weatherlink.com 1.10,2013-09-17 23:09:00,
2013-09-17 19:27:00,50.0,47.0,30.32,SE,132,0.0,0.0,89,0.00,,,0.00,weatherlink.com 1.10,2013-09-17 23:27:00,
2013-09-17 19:44:00,48.9,46.0,30.32,SE,132,0.0,0.0,91,0.00,,,0.00,weatherlink.com 1.10,2013-09-17 23:44:00,
2013-09-17 20:01:00,48.5,46.0,30.33,SE,132,0.0,0.0,92,0.00,,,0.00,weatherlink.com 1.10,2013-09-18 00:01:00,
2013-09-17 20:19:00,48.1,46.0,30.33,SE,132,0.0,0.0,92,0.00,,,0.00,weatherlink.com 1.10,2013-09-18 00:19:00,
2013-09-17 20:35:00,47.3,45.0,30.33,SE,132,0.0,0.0,92,0.00,,,0.00,weatherlink.com 1.10,2013-09-18 00:35:00,
2013-09-17 20:53:00,46.8,45.0,30.33,SE,132,0.0,0.0,92,0.00,,,0.00,weatherlink.com 1.10,2013-09-18 00:53:00,
2013-09-17 21:10:00,46.5,44.0,30.32,SE,132,0.0,0.0,92,0.00,,,0.00,weatherlink.com 1.10,2013-09-18 01:10:00,
2013-09-17 21:28:00,45.9,44.0,30.32,SE,132,0.0,0.0,93,0.00,,,0.00,weatherlink.com 1.10,2013-09-18 01:28:00,
2013-09-17 21:45:00,45.4,43.0,30.33,SE,132,0.0,0.0,92,0.00,,,0.00,weatherlink.com 1.10,2013-09-18 01:45:00,
2013-09-17 22:19:00,44.9,43.0,30.33,SE,133,0.0,0.0,93,0.00,,,0.00,weatherlink.com 1.10,2013-09-18 02:19:00,
2013-09-17 22:36:00,44.6,43.0,30.33,SE,132,0.0,0.0,94,0.00,,,0.00,weatherlink.com 1.10,2013-09-18 02:36:00,
2013-09-17 22:54:00,44.5,43.0,30.33,SE,132,0.0,0.0,94,0.00,,,0.00,weatherlink.com 1.10,2013-09-18 02:54:00,
2013-09-17 23:28:00,44.1,43.0,30.32,SE,133,0.0,0.0,94,0.00,,,0.00,weatherlink.com 1.10,2013-09-18 03:28:00,
2013-09-17 23:45:00,43.5,42.0,30.32,SE,132,0.0,0.0,94,0.00,,,0.00,weatherlink.com 1.10,2013-09-18 03:45:00,